Regional Weather Roundup
Issued by NWS

Home | Current Version | Previous Version | Graphics & Text | Print | Product List | Glossary Off
Versions: 1 2 3 4 5 6 7 8 9 10 11 12 13 14 15 16 17 18 19 20 21 22 23 24 25 26 27 28 29 30 31 32 33 34 35 36 37 38 39 40 41 42 43 44 45 46 47 48 49 50

000
ASUS43 KFSD 050502
RWRSD

WEATHER ROUNDUP FOR SOUTH DAKOTA
NATIONAL WEATHER SERVICE SIOUX FALLS SD
1200 AM CDT SAT SEP 05 2015

NOTE: "FAIR" INDICATES FEW OR NO CLOUDS BELOW 12,000 FEET WITH NO
SIGNIFICANT WEATHER AND/OR OBSTRUCTIONS TO VISIBILITY.


SDZ001>005-009-010-012>017-050600-
NORTHWEST AND NORTH CENTRAL SOUTH DAKOTA

CITY           SKY/WX    TMP DP  RH WIND       PRES   REMARKS
BUFFALO          N/A     72  57  59 W32G48    29.83R
FAITH            N/A     75  61  61 SE12      29.80F
MOBRIDGE       MOCLDY    75  73  93 SE8       29.78S
$$

SDZ012>016-024>037-041>051-057-063-072>074-050600-
SOUTHWEST AND SOUTH CENTRAL SOUTH DAKOTA

CITY           SKY/WX    TMP DP  RH WIND       PRES   REMARKS
RAPID CTY ARPT PTCLDY    69  58  67 S3        29.81S
PIERRE         MOCLDY    73  66  78 NE7       29.75F
CUSTER         MOCLDY    72  42  34 SE3       29.98S
PHILIP         PTCLDY    69  65  86 E8        29.76F
PINE RIDGE     MOCLDY    74  51  44 S6        29.84R
WINNER         FAIR      77  62  59 S8        29.79R
$$

SDZ004>011-016>023-039-040-050600-
NORTHEAST SOUTH DAKOTA

CITY           SKY/WX    TMP DP  RH WIND       PRES   REMARKS
ABERDEEN       PTCLDY    73  70  90 SE6       29.80S
WATERTOWN      PTCLDY    76  70  82 S14       29.85S
BROOKINGS      MOCLDY    77  70  78 SE15G23   29.88S
$$

SDZ017-020-022-023-036>040-048>070-050600-
SOUTHEAST SOUTH DAKOTA

CITY           SKY/WX    TMP DP  RH WIND       PRES   REMARKS
SIOUX FALLS    CLEAR     77  69  76 S14G23    29.86S
HURON          PTCLDY    76  72  87 SE9       29.79S
MITCHELL       MOCLDY    76  72  87 SE8       29.80S
YANKTON        PTCLDY    75  70  83 SE12      29.82S
$$

ABBREVIATIONS USED IN REMARKS
   TC - TEMPERATURE IN CELSIUS
  WCI - WIND CHILL INDEX
   HX - HEAT INDEX
  VSB - VISIBILITY




USA.gov is the U.S. government's official web portal to all federal, state and local government web resources and services.